Wind_Speed
2 1 1 2 3 3 2 4 4 4 5 6 7 9 10 10 10 10 10 10 10 9 9 8 7 7 7 6 6 6 5 5 5 5 4 4 3 3 2 2 1 1 2 2 2 2 3 4 4
3 2 1 1 2 0 2 3 4 4 5 6 6 8 9 9 9 10 10 10 9 9 9 8 7 7 6 6 6 6 5 5 5 5 4 4 3 2 2 2 1 1 2 2 3 3 3 3 3
4 3 2 0 1 3 3 3 3 4 4 4 6 7 8 8 9 9 9 9 9 9 8 8 8 7 7 6 6 5 5 5 5 5 4 4 3 3 2 2 1 1 2 3 3 3 3 3 4
5 4 3 2 4 4 4 3 4 4 4 5 6 7 7 8 9 9 9 9 9 9 8 7 7 7 6 6 5 5 5 4 5 5 4 4 3 3 3 2 2 2 2 2 2 2 3 3 3
6 5 4 5 6 6 6 4 4 5 5 5 6 7 8 8 8 9 9 9 9 9 8 7 7 7 6 5 4 5 4 4 4 4 4 3 3 3 3 2 2 2 2 2 2 1 2 2 3
7 6 6 7 8 8 7 5 5 5 5 5 6 7 7 7 8 9 9 9 9 9 8 7 7 6 6 5 4 4 4 4 4 3 3 3 3 3 2 2 2 2 2 2 2 1 2 2 3
8 8 8 9 9 9 8 7 5 5 6 6 6 6 6 7 8 9 9 9 9 8 8 8 7 6 6 5 4 4 3 3 3 3 3 3 3 3 3 3 2 2 1 1 1 1 2 3 3
9 9 9 9 10 10 9 7 7 7 6 6 6 6 7 7 8 8 9 9 8 8 8 8 7 6 5 5 4 4 3 3 3 3 3 3 3 3 3 2 2 2 2 1 1 1 2 3 3
10 10 10 10 10 10 9 8 8 8 7 7 6 7 7 7 8 8 8 8 8 8 8 7 7 6 6 5 5 4 3 3 3 3 2 2 2 2 2 2 1 1 1 1 1 1 2 3 4
12 12 12 11 11 10 10 9 9 8 8 7 7 7 8 8 8 8 9 8 8 8 7 7 6 6 6 5 5 4 4 4 3 3 2 2 2 2 2 1 1 2 2 2 2 1 2 3 4
13 13 12 12 11 11 10 10 9 9 8 8 7 7 7 8 8 8 8 8 8 7 7 7 6 6 5 5 5 5 5 4 3 3 2 3 3 2 2 2 2 2 2 2 2 2 3 3 4
14 14 14 13 12 12 11 10 10 10 9 9 8 8 7 8 8 8 8 8 7 8 7 6 6 5 5 5 5 5 5 4 4 3 3 3 3 3 3 2 2 2 3 3 2 2 2 3 4
15 15 14 14 13 13 12 12 11 11 10 10 10 9 8 8 8 8 8 8 8 8 7 7 6 5 5 5 5 5 5 4 3 3 3 3 3 3 3 3 3 3 3 3 3 3 3 3 3
15 15 15 14 14 14 14 13 12 12 12 12 12 10 9 8 8 8 8 8 8 8 7 7 6 5 5 5 5 5 5 5 4 3 3 3 3 3 3 3 3 4 4 3 3 3 4 4 4
15 15 15 15 15 14 13 13 12 12 13 13 12 11 10 9 9 9 9 9 8 9 8 7 7 6 6 6 6 5 5 5 5 4 4 3 3 3 4 4 4 4 4 3 3 3 3 4 4
16 15 15 16 15 14 14 14 13 13 13 13 12 12 12 12 11 11 11 10 9 9 8 8 7 6 6 6 6 5 5 5 5 5 4 4 4 4 4 4 4 4 4 3 3 3 3 4 4
16 16 16 16 16 15 15 15 14 13 13 13 13 13 13 12 12 12 12 11 10 10 9 8 8 7 7 7 6 6 5 6 5 5 5 5 5 5 5 4 4 4 4 3 4 4 4 4 4
17 17 17 17 17 16 16 16 15 13 14 13 13 13 13 13 12 13 12 11 11 11 10 9 9 8 8 8 7 7 6 7 7 7 6 6 6 6 5 5 5 4 4 4 4 5 5 5 5
18 17 17 18 17 16 16 16 15 15 14 14 14 14 14 14 13 13 13 13 13 12 11 10 10 10 10 9 9 8 8 8 8 8 8 8 8 7 6 6 6 6 5 5 5 5 6 6 6
18 18 18 18 19 17 17 16 16 16 15 15 15 15 15 15 15 15 14 14 14 13 12 12 12 11 11 11 11 10 9 10 10 10 9 9 9 8 7 7 7 7 7 6 6 6 6 7 7
19 19 19 19 19 18 17 16 16 16 16 17 16 17 16 16 16 16 15 15 14 14 13 13 13 12 12 13 13 12 11 10 10 10 10 9 9 9 9 8 8 7 8 8 7 7 7 7 7
19 20 20 20 18 18 17 16 17 16 17 18 17 17 17 17 17 17 16 16 15 15 14 14 14 13 13 12 13 13 11 11 11 10 10 9 9 9 10 9 9 9 9 8 8 7 7 7 7
20 20 21 20 19 18 18 17 18 17 17 18 17 17 17 17 17 17 18 17 17 17 16 15 14 13 13 13 13 13 12 11 11 11 10 10 10 10 11 11 10 10 9 9 9 9 8 8 8
20 19 19 19 19 20 20 19 19 19 18 18 18 17 17 18 18 18 18 18 18 17 16 16 15 14 14 13 12 13 13 12 12 11 11 11 11 11 11 12 12 11 11 10 10 9 9 9 9
20 19 18 19 20 21 21 21 22 20 19 19 18 18 18 19 18 18 18 18 18 18 17 17 16 15 15 14 13 13 13 14 13 12 12 12 11 11 11 11 12 12 11 10 10 11 10 10 10
20 21 20 19 19 21 22 23 23 22 21 20 19 19 18 18 18 17 17 18 18 18 18 17 16 16 16 15 14 14 14 15 14 13 13 13 13 12 11 11 11 11 11 11 11 11 11 11 10
21 22 22 22 22 21 22 24 24 24 23 21 21 20 19 19 19 18 19 19 19 19 18 18 17 17 16 16 15 15 15 15 15 15 15 15 15 14 13 12 12 12 12 13 12 12 12 11 11
22 22 22 22 22 22 22 23 24 24 23 22 22 21 21 21 21 20 20 20 20 20 19 19 18 18 17 17 17 16 16 16 16 16 16 17 16 16 15 14 14 14 14 14 14 14 13 13 13
20 21 22 22 23 22 21 23 24 25 24 23 23 22 22 22 22 21 21 21 21 20 20 19 19 18 18 18 18 18 18 17 18 18 17 17 17 16 16 15 15 15 15 15 15 15 15 14 14
20 19 20 21 22 23 22 23 25 25 24 24 23 22 22 22 21 21 21 21 21 21 20 20 20 20 20 20 20 20 20 19 19 18 18 18 17 17 16 15 15 15 16 16 16 16 16 15 15
Wind_Direction
273 311 13 35 44 34 10 16 26 27 29 35 35 34 35 36 35 31 27 25 25 26 24 21 28 36 36 38 44 53 62 69 70 70 71 73 74 66 59 66 74 112 143 167 177 184 204 214 218
257 272 297 24 70 256 322 357 7 10 16 23 27 27 29 30 29 28 26 25 23 22 22 22 25 29 34 35 40 48 57 67 70 71 72 69 63 59 60 67 73 179 184 185 185 181 193 204 210
254 260 263 282 219 222 268 316 337 354 8 14 16 20 20 21 24 24 23 22 21 20 20 22 25 30 33 32 39 46 52 59 64 65 67 64 54 40 55 61 58 177 192 185 184 190 192 200 211
249 253 254 250 251 259 269 294 324 335 356 358 3 12 11 12 16 17 18 19 19 18 17 20 22 24 25 29 37 43 46 53 61 59 58 57 53 50 57 64 81 112 152 168 183 197 193 203 209
246 245 250 253 255 260 267 285 309 321 330 343 352 0 2 7 8 9 12 15 15 14 11 14 16 16 17 22 28 33 39 48 52 52 52 51 51 54 58 66 84 103 120 149 173 180 182 191 197
246 246 240 245 256 259 266 278 296 311 320 332 341 345 351 356 1 4 6 8 10 9 6 7 10 11 10 11 18 27 34 42 43 46 51 49 50 49 57 63 77 98 119 126 138 161 193 195 204
242 239 236 242 253 256 262 271 278 290 306 320 331 334 342 346 352 355 357 359 359 359 360 1 3 5 5 3 6 10 19 28 32 43 55 52 50 55 57 63 69 75 82 109 159 196 200 200 201
241 238 239 242 247 253 258 263 269 278 291 303 315 323 336 339 344 347 348 348 348 349 350 353 356 357 359 357 356 357 8 16 21 33 49 55 52 50 53 62 64 67 51 32 356 271 225 220 216
240 238 238 240 242 248 253 257 267 276 282 288 303 316 327 330 334 336 337 340 343 342 342 346 350 350 350 348 349 350 356 1 2 6 20 36 36 32 40 46 32 28 10 344 323 277 236 217 216
239 238 240 243 244 244 247 255 264 271 275 282 290 302 312 318 325 329 330 334 337 339 339 340 343 346 346 345 347 344 347 347 348 347 358 9 13 9 7 354 317 298 305 306 293 261 240 226 225
240 240 241 244 245 244 246 253 261 267 271 272 280 293 304 310 316 320 324 328 332 336 335 333 336 337 339 337 342 343 343 343 345 343 347 352 351 344 335 315 308 307 300 295 292 273 246 233 233
242 243 243 245 247 248 250 254 257 264 267 267 274 283 291 301 309 314 318 323 326 329 327 324 326 327 332 333 336 339 343 345 341 342 348 347 346 343 336 317 303 308 307 296 288 273 266 249 245
240 242 244 246 249 250 251 253 255 260 266 269 273 278 286 293 300 306 310 314 318 321 323 320 318 320 326 328 328 337 341 341 342 346 342 340 343 341 342 333 305 297 294 285 276 269 264 263 268
239 242 245 247 249 251 254 254 253 259 266 271 272 271 280 283 286 294 300 305 309 315 318 316 313 313 316 317 320 329 333 332 327 329 335 337 335 335 332 327 321 312 301 291 278 273 262 266 276
245 245 247 248 247 249 254 255 255 260 264 266 267 267 271 273 275 280 286 293 299 306 310 310 306 305 307 307 309 313 320 324 325 314 304 312 314 318 324 324 321 317 308 290 274 271 265 272 278
244 244 247 249 248 247 251 254 258 259 262 262 262 263 265 267 269 272 278 283 289 298 303 303 300 295 294 294 299 302 307 311 317 313 303 300 301 307 312 312 312 313 311 303 285 278 269 267 275
242 243 244 248 249 248 248 251 258 259 259 259 260 260 262 265 268 271 274 277 283 291 294 293 293 291 286 286 289 293 297 298 304 307 298 294 298 302 302 303 303 303 305 304 295 284 274 271 276
238 239 243 247 248 248 248 251 256 258 257 256 259 259 261 265 269 271 273 276 281 286 288 285 285 288 284 279 282 285 286 288 290 297 293 291 291 292 291 289 290 292 296 294 288 288 282 277 277
237 239 242 247 248 248 248 249 253 255 256 255 257 257 258 262 263 268 271 274 278 283 285 283 280 282 281 277 275 276 280 283 284 290 291 286 281 282 282 280 281 282 284 285 282 279 278 275 275
237 240 243 246 248 248 249 252 254 254 255 256 255 254 254 257 261 267 271 273 274 277 279 281 280 277 275 275 272 269 273 277 280 285 285 280 278 276 276 277 276 277 280 282 282 277 273 273 277
239 239 240 242 245 249 252 256 255 256 256 256 255 254 256 259 262 265 266 268 270 274 277 281 281 278 276 273 269 268 270 274 276 280 284 280 275 270 271 275 271 273 279 281 282 281 274 275 276
240 240 241 243 244 248 249 253 257 257 256 256 255 255 255 259 263 265 266 267 270 272 274 277 278 279 279 277 270 269 267 270 274 277 280 279 274 268 269 270 271 270 275 280 282 281 281 281 280
240 242 244 244 245 246 250 250 256 256 255 254 255 256 257 260 262 264 265 267 268 270 272 273 276 278 278 278 272 266 265 268 270 274 277 275 272 269 271 267 267 267 273 278 280 281 281 283 280
242 244 247 248 248 248 248 250 252 257 254 253 254 258 260 261 262 263 263 265 266 268 269 271 274 276 276 276 271 265 264 264 267 271 274 274 271 271 273 272 272 273 273 276 281 281 284 282 281
243 244 247 249 249 249 251 252 251 255 254 252 254 258 259 260 261 263 264 264 266 268 268 269 269 272 274 274 272 267 267 264 265 269 274 275 274 273 277 272 276 272 271 277 281 286 285 283 280
244 243 243 245 249 253 254 254 255 255 254 254 256 260 261 259 260 262 263 263 266 268 267 267 268 270 272 273 273 271 273 270 268 270 272 273 276 279 280 278 278 279 280 280 285 285 281 279 279
244 243 244 248 250 252 256 258 258 256 257 256 257 259 259 259 260 261 261 263 266 267 267 268 268 268 269 269 270 272 273 271 270 269 268 268 270 274 278 279 280 281 280 283 285 283 284 278 278
245 245 247 247 251 253 256 259 259 259 260 259 258 259 259 259 260 260 261 261 262 263 265 267 267 267 266 266 266 266 268 268 270 270 268 268 268 271 274 276 277 279 281 283 283 281 285 282 279
248 247 249 250 250 252 257 259 260 262 259 260 260 259 260 261 261 260 260 259 260 262 263 264 264 264 267 267 266 265 266 267 269 271 270 269 266 267 270 272 275 276 277 280 282 283 285 282 278
249 250 252 253 256 255 254 259 262 262 260 260 260 259 259 260 261 260 259 257 258 259 261 261 262 263 266 267 267 266 266 267 268 269 269 269 268 266 267 271 274 276 277 277 279 282 280 275 276
Height
5916 5916 5917 5918 5919 5920 5919 5919 5918 5917 5915 5914 5913 5911 5910 5909 5908 5909 5905 5902 5900 5898 5897 5895 5894 5893 5892 5891 5890 5888 5887 5886 5886 5885 5884 5884 5883 5882 5881 5881 5880 5880 5880 5880 5880 5880 5880 5880 5881
5915 5916 5917 5918 5920 5921 5920 5918 5918 5916 5915 5914 5912 5911 5909 5908 5907 5905 5903 5902 5900 5899 5897 5896 5894 5893 5892 5891 5890 5888 5887 5886 5885 5885 5884 5884 5883 5882 5881 5880 5880 5879 5879 5879 5879 5880 5880 5880 5879
5914 5915 5917 5918 5919 5920 5919 5918 5917 5916 5915 5913 5912 5911 5910 5908 5907 5905 5904 5902 5900 5899 5897 5896 5895 5893 5892 5891 5890 5889 5887 5886 5886 5885 5884 5884 5883 5882 5881 5880 5878 5877 5878 5879 5879 5879 5879 5879 5879
5914 5915 5917 5919 5918 5918 5918 5917 5916 5915 5914 5913 5912 5911 5909 5908 5907 5905 5904 5902 5900 5899 5897 5896 5895 5894 5892 5891 5890 5889 5888 5886 5885 5885 5884 5883 5883 5882 5880 5879 5878 5878 5878 5878 5878 5878 5878 5878 5878
5912 5915 5916 5917 5916 5917 5916 5916 5915 5915 5914 5913 5912 5911 5909 5908 5906 5905 5903 5902 5901 5899 5897 5896 5895 5894 5892 5891 5890 5889 5888 5886 5885 5885 5884 5883 5882 5881 5880 5879 5879 5879 5879 5878 5878 5878 5878 5878 5877
5912 5914 5916 5916 5915 5915 5915 5915 5915 5914 5913 5912 5911 5911 5909 5908 5906 5905 5903 5902 5901 5899 5898 5896 5895 5894 5892 5891 5890 5889 5888 5886 5885 5884 5884 5883 5882 5881 5880 5880 5879 5879 5879 5878 5878 5877 5877 5877 5877
5911 5912 5913 5914 5914 5914 5914 5914 5914 5913 5912 5912 5911 5910 5909 5908 5906 5905 5903 5902 5901 5899 5898 5896 5895 5894 5892 5891 5890 5889 5888 5886 5885 5884 5883 5883 5882 5881 5880 5880 5879 5879 5878 5878 5878 5877 5877 5877 5877
5908 5911 5911 5912 5912 5912 5913 5913 5912 5912 5912 5911 5910 5909 5908 5907 5906 5904 5903 5902 5900 5899 5898 5896 5895 5893 5892 5891 5890 5889 5887 5886 5885 5884 5883 5883 5882 5881 5880 5880 5879 5879 5878 5878 5877 5877 5876 5876 5876
5906 5910 5910 5910 5911 5911 5911 5911 5911 5911 5910 5910 5909 5908 5908 5906 5905 5904 5903 5901 5900 5899 5897 5896 5894 5893 5892 5890 5889 5888 5887 5886 5885 5884 5883 5882 5881 5881 5880 5879 5879 5878 5878 5877 5877 5876 5876 5876 5876
5905 5907 5907 5908 5908 5909 5909 5909 5910 5910 5909 5908 5908 5907 5906 5905 5904 5903 5902 5901 5900 5898 5897 5895 5894 5893 5891 5890 5889 5888 5887 5885 5884 5883 5883 5882 5881 5880 5880 5879 5878 5878 5877 5877 5876 5875 5875 5875 5875
5902 5904 5904 5905 5905 5906 5907 5907 5908 5908 5908 5907 5906 5906 5905 5904 5903 5902 5901 5900 5899 5898 5896 5895 5893 5892 5891 5890 5888 5887 5886 5885 5884 5883 5882 5882 5881 5880 5879 5878 5878 5877 5876 5876 5875 5875 5874 5874 5874
5900 5901 5901 5902 5903 5904 5905 5905 5906 5906 5906 5906 5905 5904 5904 5903 5902 5901 5900 5899 5898 5897 5896 5894 5893 5891 5890 5889 5888 5887 5886 5884 5884 5883 5882 5881 5880 5879 5879 5878 5877 5876 5876 5875 5875 5874 5874 5873 5873
5897 5898 5899 5900 5901 5901 5902 5903 5903 5904 5904 5904 5903 5903 5902 5902 5901 5900 5899 5899 5897 5896 5895 5894 5892 5891 5890 5889 5888 5887 5885 5884 5883 5882 5881 5880 5880 5879 5878 5877 5876 5875 5875 5874 5874 5874 5873 5873 5872
5894 5895 5896 5897 5898 5899 5900 5901 5901 5901 5902 5901 5901 5901 5901 5900 5900 5899 5898 5897 5896 5895 5894 5893 5891 5890 5889 5888 5887 5886 5885 5884 5883 5882 5881 5880 5879 5878 5877 5877 5876 5875 5874 5873 5873 5873 5872 5872 5871
5891 5893 5894 5894 5895 5896 5897 5898 5899 5899 5899 5899 5899 5899 5899 5899 5898 5897 5897 5896 5895 5894 5893 5891 5890 5889 5888 5887 5886 5885 5884 5883 5882 5881 5880 5879 5878 5877 5876 5875 5875 5874 5873 5872 5871 5871 5871 5871 5870
5888 5890 5892 5892 5893 5893 5896 5896 5896 5896 5896 5896 5896 5896 5896 5896 5896 5895 5895 5894 5893 5892 5891 5890 5888 5887 5886 5886 5885 5884 5883 5882 5881 5880 5879 5878 5877 5876 5875 5874 5874 5873 5872 5871 5871 5870 5870 5870 5869
5886 5887 5889 5889 5890 5890 5892 5893 5893 5893 5893 5893 5893 5893 5893 5894 5893 5893 5892 5891 5891 5890 5889 5888 5887 5885 5884 5884 5883 5882 5881 5881 5880 5879 5878 5877 5876 5875 5874 5873 5873 5872 5871 5870 5870 5870 5869 5869 5869
5883 5885 5885 5886 5886 5887 5889 5889 5890 5890 5890 5890 5890 5890 5891 5891 5891 5890 5890 5889 5888 5888 5887 5886 5885 5883 5882 5882 5881 5880 5880 5879 5878 5877 5877 5875 5874 5873 5873 5872 5871 5871 5870 5869 5869 5868 5868 5868 5867
5879 5881 5882 5883 5883 5884 5885 5886 5887 5887 5887 5887 5887 5888 5888 5888 5888 5887 5887 5887 5886 5885 5884 5884 5882 5881 5880 5880 5879 5878 5878 5877 5876 5875 5874 5874 5873 5872 5871 5871 5870 5870 5869 5868 5868 5867 5867 5866 5866
5875 5877 5878 5879 5879 5881 5882 5883 5883 5883 5884 5884 5884 5884 5885 5885 5885 5884 5884 5884 5883 5883 5882 5881 5880 5879 5878 5877 5877 5876 5875 5875 5874 5873 5872 5871 5870 5870 5869 5869 5868 5868 5868 5867 5866 5866 5865 5865 5864
5871 5873 5874 5875 5876 5877 5879 5880 5880 5880 5880 5880 5881 5881 5881 5881 5882 5881 5881 5881 5880 5880 5879 5878 5877 5876 5875 5874 5874 5873 5873 5872 5871 5870 5870 5869 5868 5867 5867 5866 5866 5866 5866 5865 5865 5864 5864 5863 5863
5867 5868 5869 5871 5873 5874 5876 5877 5876 5877 5877 5877 5877 5877 5878 5878 5878 5878 5878 5877 5877 5876 5876 5875 5874 5873 5872 5871 5870 5870 5869 5869 5868 5867 5867 5866 5865 5865 5864 5864 5864 5864 5864 5864 5863 5863 5862 5862 5861
5862 5863 5865 5866 5868 5870 5871 5873 5873 5873 5873 5873 5873 5874 5874 5874 5874 5874 5874 5874 5873 5873 5872 5871 5871 5870 5869 5868 5867 5866 5866 5866 5865 5864 5864 5863 5863 5862 5862 5862 5862 5862 5862 5862 5861 5861 5860 5860 5859
5857 5859 5860 5862 5864 5866 5867 5868 5869 5868 5868 5869 5869 5870 5870 5870 5870 5870 5870 5870 5869 5869 5868 5868 5867 5867 5866 5865 5864 5863 5863 5863 5862 5861 5861 5860 5860 5860 5859 5859 5859 5859 5859 5859 5859 5859 5858 5858 5857
5853 5856 5858 5859 5860 5861 5862 5862 5863 5863 5864 5865 5865 5866 5865 5866 5866 5866 5866 5866 5865 5865 5864 5864 5864 5863 5862 5862 5861 5860 5860 5859 5858 5858 5858 5857 5857 5857 5857 5857 5856 5856 5856 5856 5856 5856 5856 5855 5855
5848 5850 5853 5856 5857 5858 5856 5856 5858 5858 5859 5860 5860 5861 5861 5861 5861 5862 5861 5861 5861 5861 5860 5860 5860 5859 5859 5858 5858 5857 5856 5855 5855 5854 5854 5854 5854 5854 5854 5853 5853 5853 5853 5853 5853 5853 5853 5852 5852
5842 5844 5847 5848 5849 5851 5851 5851 5852 5852 5853 5854 5855 5856 5856 5856 5857 5857 5857 5857 5856 5856 5856 5856 5855 5855 5855 5854 5854 5853 5853 5852 5852 5851 5851 5851 5851 5850 5850 5851 5850 5851 5850 5850 5850 5850 5850 5849 5849
5837 5838 5840 5842 5843 5845 5846 5846 5847 5846 5847 5849 5849 5850 5851 5851 5851 5851 5851 5851 5851 5851 5851 5851 5851 5851 5851 5850 5850 5849 5849 5849 5848 5847 5847 5847 5847 5847 5847 5847 5847 5847 5847 5847 5847 5846 5846 5845 5846
5831 5833 5834 5836 5837 5839 5841 5843 5840 5840 5841 5842 5843 5844 5845 5845 5845 5845 5845 5845 5846 5846 5846 5846 5846 5846 5846 5846 5845 5845 5845 5845 5844 5844 5844 5843 5843 5843 5844 5844 5844 5844 5844 5844 5843 5843 5842 5842 5842
5825 5827 5828 5830 5831 5832 5834 5837 5833 5833 5834 5836 5837 5837 5838 5838 5839 5839 5839 5839 5840 5840 5841 5841 5841 5841 5841 5841 5841 5841 5840 5840 5840 5840 5840 5839 5839 5839 5839 5840 5840 5840 5840 5840 5839 5838 5838 5838 5838